Showing default

KOREASAT 6A, 61910

Orbit data source: Space-Track

KOREASAT 6A, 61910 is a payload satellite owned by KT Sat (KR) in GEO that was launched on Mon, 11 Nov 2024 UTC via an FALCON 9 launch vehicle from the Air Force Eastern Test Range (AFETR). Payload-class satellites include a variety of spacecraft equipped with specific instruments for various scientific and technological missions. These include communications satellites like Starlink; space stations such as the ISS; scientific satellites like the Hubble; Earth observation satellites from companies like Planet Labs, Umbra, and HawkEye 360; GPS; miniature CubeSats for education and research; and military/defense satellites.

Not visible in the next 10 days
Identifier
61910, 2024-206A
Orbit
GEO
Last TLE update
8 hours ago
Origin
Manufacturer
Thales Alenia
Mission
Operational Commercial Communications
Bus & Motor
SPACEBUS 4000B2, S400
Mass
~3,500 kg wet, ~2,000 kg dry
Launch date (UTC)
2024-11-11 (8 months ago)
Launch vehicle
FALCON 9
Launch site
Air Force Eastern Test Range (AFETR)
Object type
Payload
Rocket body
Debris
Shape & HBR
Box + 2 Pan, 19.0 m
Radar Cross Section
39.423 m²

Expand to show TLE details & history

TLE from 8 hours ago
0 KOREASAT 6A
1 61910U 24206A   25199.63696317 -.00000356  00000-0  00000-0 0  9993
2 61910   0.0230 107.3661 0000925  15.9799 158.6256  1.00268603  2498
Epoch: 2025-07-18T15:17Z
TLE epoch observation values (Epoch: 2025-07-18T15:17:13.617Z)
Latitude
-0.0099°
Longitude
115.9883°
Altitude
35,790.627 km
Speed
3.074 km/s
True Right ascension
18h 47m 55s
True Declination
0° 00' 36"
Sunlit
Object was in daylight at epoch
Visualization orbit readout
Latitude
-0.01818°
Longitude
-119.04965°
Altitude
35,786.106 km
Speed
3.075 km/s
Apparent Right ascension
02h 51m 42s
Apparent Declination
-5° 04' 38"
Sunlit
Object is in daylight
Visualization observer readout
Local Sidereal Time
12:23:24
Azimuth
306.362° NW
Elevation
-41.785°
Doppler factor
1
Orbital elements
Apogee altitude
35,792.458 km
Perigee altitude
35,784.657 km
Semi-major axis
42,166.694 km
Eccentricity
0.00009
Inclination
0.023°
RAAN
107.3661°
Arg. of periapsis
15.9799°
True anomaly
158.62946°
Mean anomaly
158.6256°
Eccentric anomaly
158.62753°
Mean motion
0.25066 °/min
Orbital period
1,436.2 mins
BSTAR
0
Loading maneuver chart data...
Loading SW <> Apogee altitude chart data...
Loading historical data...
Loading historical data...
Loading historical data...
Loading historical data...
Loading historical data...
Loading historical data...
Loading historical data...
Other satellites on launch #206 in the year 2024 (2024-11-11 UTC)
|